{"data":{"norad_id":55326,"intl_designator":"2023-011C","name":"HAWK-6C","alt_names":[],"object_type":"PAYLOAD","status":"ACTIVE","operator":null,"country":"US","launch_date":"2023-01-24","launch_site_code":"WLPIS","launch_vehicle":null,"mission":null,"orbit_class":"UNKNOWN","rcs_meters":null,"size_class":null,"mass_kg":null,"dimensions":null,"purposes":["tech_demo"],"wikipedia_slug":null,"has_3d_model":false,"image_url":null,"decayed_at":null,"tle_current":{"epoch":"2026-09-20T01:09:40.601376Z","epoch_age_seconds":53504,"freshness":"FRESH","line1":"1 55326U 23011C   26263.04838659  .00002453  00000+0  10823-3 0  9990","line2":"2 55326  40.4963 155.2931 0004121 308.9826  51.0616 15.23654808202329","mean_motion":15.23654808,"eccentricity":0.0004121,"inclination_deg":40.4963,"raan_deg":155.2931,"arg_perigee_deg":308.9826,"mean_anomaly_deg":51.0616,"bstar":0.00010823,"rev_number":20232,"period_min":94.509595771905,"perigee_km":491.99540933964,"apogee_km":497.66010689328,"semimajor_km":6872.9647581165,"source":"CELESTRAK","updated_at":"2026-09-20T09:00:47.451474Z"}}}